| time (UTC) | temp F | wind direction | speed knots | gust knots | rain 1hr in | rain 24hr in | rain mn in | humidity % | barometer mb |
| 20260506222602 | 67 | 177 | 0.9 | 0.9 | 0.00 | 0.16 | 0.16 | 83 | 996.2 |
| 20260506222058 | 67 | 177 | 1.7 | 1.7 | 0.00 | 0.16 | 0.16 | 83 | 996.2 |
| 20260506221556 | 67 | 176 | 0.9 | 0.9 | 0.00 | 0.16 | 0.16 | 82 | 996.1 |
| 20260506221054 | 67 | 195 | 2.6 | 4.3 | 0.00 | 0.16 | 0.16 | 82 | 996.0 |
| 20260506220549 | 67 | 189 | 2.6 | 2.6 | 0.00 | 0.16 | 0.16 | 82 | 996.3 |
| 20260506220045 | 67 | 174 | 0.0 | 0.0 | 0.00 | 0.16 | 0.16 | 82 | 996.3 |
| 20260506215542 | 67 | 191 | 4.3 | 5.2 | 0.00 | 0.16 | 0.16 | 82 | 996.2 |
| 20260506215037 | 68 | 146 | 1.7 | 1.7 | 0.00 | 0.16 | 0.16 | 81 | 996.1 |
| 20260506214535 | 68 | 255 | 3.5 | 5.2 | 0.00 | 0.16 | 0.16 | 80 | 996.1 |
| 20260506214032 | 68 | 192 | 4.3 | 6.1 | 0.00 | 0.16 | 0.16 | 80 | 996.0 |
| 20260506213530 | 68 | 190 | 1.7 | 2.6 | 0.00 | 0.16 | 0.16 | 80 | 995.9 |
| 20260506213027 | 67 | 181 | 2.6 | 4.3 | 0.00 | 0.16 | 0.16 | 82 | 996.0 |
| 20260506212523 | 68 | 181 | 2.6 | 2.6 | 0.00 | 0.16 | 0.16 | 83 | 996.0 |
| 20260506212018 | 68 | 145 | 1.7 | 1.7 | 0.00 | 0.16 | 0.16 | 83 | 995.7 |
| 20260506211514 | 67 | 170 | 0.0 | 0.0 | 0.00 | 0.16 | 0.16 | 84 | 995.8 |
| 20260506211012 | 67 | 185 | 2.6 | 2.6 | 0.00 | 0.16 | 0.16 | 84 | 995.7 |
| 20260506210508 | 66 | 217 | 2.6 | 2.6 | 0.00 | 0.16 | 0.16 | 84 | 995.6 |
| 20260506210005 | 66 | 178 | 2.6 | 2.6 | 0.00 | 0.16 | 0.16 | 84 | 995.6 |
| 20260506205501 | 66 | 231 | 0.9 | 0.9 | 0.00 | 0.16 | 0.16 | 85 | 996.0 |
| 20260506204957 | 66 | 261 | 5.2 | 6.1 | 0.00 | 0.16 | 0.16 | 85 | 995.8 |
| 20260506204455 | 66 | 215 | 5.2 | 7.8 | 0.00 | 0.16 | 0.16 | 85 | 995.7 |
| 20260506203952 | 66 | 189 | 2.6 | 4.3 | 0.00 | 0.16 | 0.16 | 85 | 995.8 |
| 20260506203450 | 66 | 179 | 2.6 | 2.6 | 0.00 | 0.16 | 0.16 | 85 | 995.7 |
| 20260506202947 | 66 | 194 | 5.2 | 6.1 | 0.00 | 0.16 | 0.16 | 85 | 995.7 |
| 20260506202444 | 65 | 194 | 4.3 | 5.2 | 0.00 | 0.16 | 0.16 | 85 | 995.4 |
| 20260506201940 | 65 | 231 | 4.3 | 6.1 | 0.00 | 0.16 | 0.16 | 85 | 995.8 |
| 20260506201438 | 65 | 163 | 2.6 | 4.3 | 0.00 | 0.16 | 0.16 | 86 | 995.8 |
| 20260506200934 | 65 | 113 | 2.6 | 4.3 | 0.00 | 0.16 | 0.16 | 86 | 995.8 |
| 20260506200431 | 65 | 223 | 3.5 | 4.3 | 0.00 | 0.16 | 0.16 | 86 | 995.9 |
| 20260506195927 | 65 | 247 | 7.8 | 8.7 | 0.00 | 0.16 | 0.16 | 86 | 995.8 |
| 20260506195424 | 64 | 168 | 2.6 | 2.6 | 0.00 | 0.16 | 0.16 | 88 | 996.1 |
| 20260506194915 | 64 | 183 | 1.7 | 2.6 | 0.00 | 0.16 | 0.16 | 88 | 996.1 |
| 20260506194413 | 64 | 214 | 3.5 | 5.2 | 0.00 | 0.16 | 0.16 | 88 | 995.7 |
| 20260506193910 | 64 | 236 | 2.6 | 4.3 | 0.00 | 0.16 | 0.16 | 88 | 996.0 |
| 20260506193407 | 64 | 206 | 3.5 | 4.3 | 0.00 | 0.16 | 0.16 | 89 | 996.1 |
| 20260506192903 | 63 | 145 | 1.7 | 1.7 | 0.00 | 0.16 | 0.16 | 90 | 996.0 |
| 20260506192400 | 63 | 182 | 0.9 | 1.7 | 0.00 | 0.16 | 0.16 | 90 | 996.0 |
| 20260506191857 | 63 | 174 | 2.6 | 2.6 | 0.00 | 0.16 | 0.16 | 90 | 996.3 |
| 20260506191353 | 63 | 212 | 3.5 | 4.3 | 0.00 | 0.16 | 0.16 | 90 | 996.2 |
| 20260506190850 | 63 | 166 | 1.7 | 1.7 | 0.00 | 0.16 | 0.16 | 90 | 996.4 |
| 20260506190346 | 62 | 209 | 3.5 | 5.2 | 0.00 | 0.16 | 0.16 | 91 | 996.4 |
| 20260506185843 | 62 | 155 | 1.7 | 1.7 | 0.00 | 0.16 | 0.16 | 91 | 996.6 |
| 20260506185340 | 62 | 164 | 3.5 | 4.3 | 0.00 | 0.16 | 0.16 | 91 | 996.4 |
| 20260506184837 | 62 | 196 | 4.3 | 5.2 | 0.00 | 0.16 | 0.16 | 91 | 996.6 |
| 20260506184334 | 62 | 196 | 3.5 | 4.3 | 0.00 | 0.16 | 0.16 | 91 | 996.5 |
| 20260506183832 | 62 | 152 | 2.6 | 4.3 | 0.00 | 0.16 | 0.16 | 92 | 996.6 |
| 20260506183327 | 62 | 150 | 3.5 | 5.2 | 0.00 | 0.16 | 0.16 | 91 | 996.5 |
| 20260506182825 | 62 | 187 | 4.3 | 6.1 | 0.00 | 0.16 | 0.16 | 92 | 996.7 |
| 20260506182321 | 62 | 207 | 4.3 | 6.1 | 0.00 | 0.16 | 0.16 | 92 | 996.7 |
| 20260506181819 | 61 | 222 | 5.2 | 7.8 | 0.00 | 0.16 | 0.16 | 93 | 996.8 |
| 20260506181316 | 61 | 171 | 0.9 | 0.9 | 0.00 | 0.16 | 0.16 | 94 | 996.8 |
| 20260506180813 | 61 | 216 | 4.3 | 5.2 | 0.00 | 0.16 | 0.16 | 94 | 996.7 |
| 20260506180309 | 61 | 196 | 0.9 | 1.7 | 0.00 | 0.16 | 0.16 | 95 | 997.0 |
| 20260506175805 | 61 | 206 | 4.3 | 5.2 | 0.00 | 0.16 | 0.16 | 94 | 997.0 |
| 20260506175305 | 61 | 150 | 3.5 | 4.3 | 0.00 | 0.16 | 0.16 | 94 | 996.6 |
| 20260506174800 | 61 | 185 | 3.5 | 5.2 | 0.00 | 0.16 | 0.16 | 94 | 996.6 |
| 20260506174257 | 61 | 193 | 5.2 | 7.0 | 0.00 | 0.16 | 0.16 | 95 | 997.1 |
| 20260506173754 | 61 | 242 | 6.1 | 8.7 | 0.00 | 0.16 | 0.16 | 96 | 997.1 |
| 20260506173251 | 61 | 154 | 3.5 | 5.2 | 0.00 | 0.16 | 0.16 | 96 | 996.8 |
| 20260506172748 | 61 | 192 | 6.1 | 7.8 | 0.00 | 0.16 | 0.16 | 96 | 996.8 |
| 20260506172244 | 61 | 149 | 0.9 | 1.7 | 0.00 | 0.16 | 0.16 | 96 | 996.9 |
| 20260506171742 | 61 | 204 | 3.5 | 4.3 | 0.00 | 0.16 | 0.16 | 96 | 997.0 |
| 20260506171239 | 61 | 188 | 0.9 | 1.7 | 0.00 | 0.16 | 0.16 | 97 | 997.1 |
| 20260506170737 | 61 | 212 | 3.5 | 5.2 | 0.00 | 0.16 | 0.16 | 96 | 996.9 |
| 20260506170233 | 61 | 170 | 2.6 | 4.3 | 0.00 | 0.16 | 0.16 | 96 | 996.9 |
| 20260506165732 | 61 | 156 | 3.5 | 4.3 | 0.00 | 0.16 | 0.16 | 96 | 997.0 |
| 20260506165228 | 61 | 179 | 2.6 | 4.3 | 0.00 | 0.16 | 0.16 | 96 | 996.9 |
| 20260506164726 | 61 | 110 | 3.5 | 5.2 | 0.00 | 0.16 | 0.16 | 96 | 997.1 |
| 20260506164222 | 61 | 184 | 2.6 | 2.6 | 0.05 | 0.16 | 0.16 | 97 | 996.8 |
| 20260506163719 | 61 | 201 | 2.6 | 2.6 | 0.05 | 0.16 | 0.16 | 97 | 996.8 |
| 20260506163214 | 61 | 179 | 1.7 | 1.7 | 0.00 | 0.15 | 0.15 | 97 | 997.3 |
| 20260506162710 | 61 | 138 | 2.6 | 2.6 | 0.07 | 0.15 | 0.15 | 97 | 997.1 |
| 20260506162208 | 61 | 170 | 3.5 | 4.3 | 0.14 | 0.15 | 0.15 | 96 | 997.1 |
| 20260506161705 | 61 | 203 | 2.6 | 4.3 | 0.07 | 0.14 | 0.14 | 96 | 997.2 |
| 20260506161202 | 60 | 174 | 2.6 | 2.6 | 0.05 | 0.13 | 0.13 | 96 | 997.7 |
| 20260506160659 | 61 | 167 | 0.9 | 0.9 | 0.12 | 0.13 | 0.13 | 96 | 997.8 |
| 20260506160156 | 61 | 190 | 2.6 | 2.6 | 0.07 | 0.12 | 0.12 | 95 | 998.1 |
| 20260506155655 | 61 | 165 | 4.3 | 4.3 | 0.05 | 0.11 | 0.11 | 95 | 998.0 |
| 20260506155151 | 61 | 160 | 2.6 | 4.3 | 0.12 | 0.11 | 0.11 | 95 | 998.1 |
| 20260506153253 | 61 | 214 | 0.9 | 2.6 | 0.19 | 0.08 | 0.08 | 93 | 998.3 |
| 20260506152750 | 61 | 145 | 0.9 | 0.9 | 0.17 | 0.07 | 0.07 | 93 | 998.3 |
| 20260506152248 | 61 | 157 | 1.7 | 1.7 | 0.05 | 0.05 | 0.05 | 92 | 998.1 |
| 20260506151747 | 62 | 179 | 2.6 | 2.6 | 0.07 | 0.04 | 0.04 | 91 | 998.2 |
| 20260506151243 | 62 | 191 | 2.6 | 2.6 | 0.07 | 0.04 | 0.04 | 90 | 997.9 |
| 20260506150739 | 62 | 183 | 4.3 | 6.1 | 0.07 | 0.03 | 0.03 | 89 | 998.1 |
| 20260506150237 | 62 | 209 | 1.7 | 1.7 | 0.07 | 0.03 | 0.03 | 89 | 998.5 |
| 20260506145733 | 63 | 235 | 5.2 | 7.0 | 0.05 | 0.02 | 0.02 | 87 | 998.2 |
| 20260506145230 | 63 | 173 | 2.6 | 2.6 | 0.05 | 0.02 | 0.02 | 86 | 998.2 |
| 20260506144727 | 63 | 193 | 1.7 | 1.7 | 0.00 | 0.01 | 0.01 | 86 | 997.8 |
| 20260506144224 | 63 | 194 | 2.6 | 4.3 | 0.07 | 0.01 | 0.01 | 86 | 998.0 |
| 20260506143721 | 64 | 206 | 2.6 | 4.3 | 0.07 | 0.01 | 0.01 | 84 | 998.3 |
| 20260506143219 | 64 | 219 | 3.5 | 5.2 | 0.00 | 0.00 | 0.00 | 82 | 998.1 |
| 20260506142718 | 64 | 218 | 3.5 | 5.2 | 0.00 | 0.00 | 0.00 | 80 | 998.4 |
| 20260506142215 | 65 | 190 | 2.6 | 2.6 | 0.00 | 0.00 | 0.00 | 78 | 998.2 |
| 20260506141713 | 65 | 185 | 3.5 | 4.3 | 0.00 | 0.00 | 0.00 | 77 | 998.2 |
| 20260506141211 | 66 | 105 | 5.2 | 7.8 | 0.00 | 0.00 | 0.00 | 75 | 998.3 |
| 20260506140708 | 66 | 212 | 4.3 | 5.2 | 0.00 | 0.00 | 0.00 | 74 | 998.2 |
| 20260506140205 | 66 | 150 | 2.6 | 2.6 | 0.00 | 0.00 | 0.00 | 74 | 998.0 |
| 20260506135702 | 66 | 204 | 4.3 | 5.2 | 0.00 | 0.00 | 0.00 | 74 | 997.9 |
| 20260506135158 | 67 | 236 | 7.8 | 9.6 | 0.00 | 0.00 | 0.00 | 73 | 997.9 |
| 20260506134655 | 67 | 151 | 3.5 | 4.3 | 0.00 | 0.00 | 0.00 | 74 | 998.1 |
| 20260506134151 | 66 | 181 | 2.6 | 2.6 | 0.00 | 0.00 | 0.00 | 74 | 997.9 |
| 20260506133648 | 66 | 209 | 5.2 | 6.1 | 0.00 | 0.00 | 0.00 | 75 | 998.0 |
| 20260506133145 | 66 | 193 | 2.6 | 2.6 | 0.00 | 0.00 | 0.00 | 76 | 998.3 |
| 20260506132643 | 66 | 175 | 3.5 | 5.2 | 0.00 | 0.00 | 0.00 | 76 | 998.0 |
| 20260506132139 | 66 | 168 | 1.7 | 1.7 | 0.00 | 0.00 | 0.00 | 75 | 998.1 |
| 20260506131637 | 66 | 220 | 3.5 | 5.2 | 0.00 | 0.00 | 0.00 | 75 | 998.1 |
| 20260506131133 | 66 | 173 | 2.6 | 2.6 | 0.00 | 0.00 | 0.00 | 75 | 998.1 |
| 20260506130630 | 66 | 235 | 6.1 | 9.6 | 0.00 | 0.00 | 0.00 | 75 | 998.3 |
| 20260506130127 | 66 | 208 | 3.5 | 4.3 | 0.00 | 0.00 | 0.00 | 75 | 998.2 |
| 20260506125625 | 66 | 169 | 4.3 | 7.8 | 0.00 | 0.00 | 0.00 | 75 | 998.2 |
| 20260506125123 | 66 | 139 | 6.1 | 7.8 | 0.00 | 0.00 | 0.00 | 75 | 998.2 |
| 20260506124620 | 66 | 207 | 7.0 | 7.8 | 0.00 | 0.00 | 0.00 | 75 | 998.4 |
| 20260506124118 | 66 | 150 | 4.3 | 5.2 | 0.00 | 0.00 | 0.00 | 75 | 998.0 |
| 20260506123616 | 66 | 135 | 2.6 | 4.3 | 0.00 | 0.00 | 0.00 | 76 | 998.0 |
| 20260506123114 | 66 | 208 | 3.5 | 4.3 | 0.00 | 0.00 | 0.00 | 76 | 998.1 |
| 20260506122610 | 65 | 197 | 4.3 | 7.0 | 0.00 | 0.00 | 0.00 | 76 | 998.1 |
| 20260506122108 | 65 | 192 | 2.6 | 2.6 | 0.00 | 0.00 | 0.00 | 77 | 998.0 |
| 20260506121606 | 65 | 168 | 3.5 | 4.3 | 0.00 | 0.00 | 0.00 | 78 | 998.0 |
| 20260506121102 | 65 | 168 | 2.6 | 2.6 | 0.00 | 0.00 | 0.00 | 78 | 997.8 |
| 20260506120600 | 65 | 155 | 3.5 | 4.3 | 0.00 | 0.00 | 0.00 | 78 | 997.8 |
| 20260506120057 | 64 | 181 | 4.3 | 5.2 | 0.00 | 0.00 | 0.00 | 79 | 997.8 |
| 20260506115555 | 64 | 219 | 3.5 | 4.3 | 0.00 | 0.00 | 0.00 | 78 | 997.9 |
| 20260506115053 | 64 | 189 | 2.6 | 4.3 | 0.00 | 0.00 | 0.00 | 79 | 997.9 |
| 20260506114550 | 64 | 164 | 2.6 | 2.6 | 0.00 | 0.00 | 0.00 | 80 | 997.8 |
| 20260506114048 | 64 | 128 | 2.6 | 2.6 | 0.00 | 0.00 | 0.00 | 80 | 997.8 |
| 20260506113546 | 64 | 171 | 6.1 | 7.0 | 0.00 | 0.00 | 0.00 | 80 | 998.0 |
| 20260506113043 | 64 | 181 | 0.9 | 1.7 | 0.00 | 0.00 | 0.00 | 80 | 997.7 |
| 20260506112539 | 64 | 159 | 1.7 | 2.6 | 0.00 | 0.00 | 0.00 | 80 | 997.8 |
| 20260506112037 | 64 | 170 | 1.7 | 1.7 | 0.00 | 0.00 | 0.00 | 80 | 997.8 |
| 20260506111535 | 63 | 178 | 2.6 | 4.3 | 0.00 | 0.00 | 0.00 | 81 | 998.0 |
| 20260506111032 | 63 | 186 | 1.7 | 1.7 | 0.00 | 0.00 | 0.00 | 81 | 997.9 |
| 20260506110530 | 63 | 176 | 2.6 | 2.6 | 0.00 | 0.00 | 0.00 | 81 | 997.9 |
| 20260506110027 | 63 | 204 | 2.6 | 4.3 | 0.00 | 0.00 | 0.00 | 81 | 997.7 |
| 20260506105522 | 63 | 204 | 2.6 | 2.6 | 0.00 | 0.00 | 0.00 | 81 | 998.0 |
| 20260506105020 | 63 | 189 | 2.6 | 4.3 | 0.00 | 0.00 | 0.00 | 81 | 997.9 |
| 20260506104518 | 63 | 209 | 2.6 | 2.6 | 0.00 | 0.00 | 0.00 | 81 | 997.7 |
| 20260506104016 | 63 | 146 | 2.6 | 2.6 | 0.00 | 0.00 | 0.00 | 82 | 997.6 |
| 20260506103513 | 63 | 177 | 0.9 | 1.7 | 0.00 | 0.00 | 0.00 | 82 | 997.9 |
| 20260506103009 | 63 | 199 | 2.6 | 2.6 | 0.00 | 0.00 | 0.00 | 82 | 998.0 |
| 20260506102508 | 63 | 174 | 1.7 | 1.7 | 0.00 | 0.00 | 0.00 | 82 | 997.6 |
| 20260506102005 | 63 | 190 | 2.6 | 4.3 | 0.00 | 0.00 | 0.00 | 82 | 997.8 |
| 20260506101501 | 63 | 151 | 0.9 | 0.9 | 0.00 | 0.00 | 0.00 | 82 | 997.8 |
| 20260506100958 | 63 | 201 | 3.5 | 4.3 | 0.00 | 0.00 | 0.00 | 82 | 997.8 |
| 20260506100457 | 63 | 155 | 1.7 | 5.2 | 0.00 | 0.00 | 0.00 | 82 | 997.6 |
| 20260506095954 | 63 | 182 | 2.6 | 2.6 | 0.00 | 0.00 | 0.00 | 82 | 997.8 |
| 20260506095453 | 63 | 166 | 3.5 | 5.2 | 0.00 | 0.00 | 0.00 | 82 | 997.7 |
| 20260506094948 | 63 | 168 | 2.6 | 2.6 | 0.00 | 0.00 | 0.00 | 82 | 998.0 |
| 20260506094447 | 63 | 190 | 2.6 | 2.6 | 0.00 | 0.00 | 0.00 | 82 | 997.9 |
| 20260506093944 | 63 | 215 | 1.7 | 2.6 | 0.00 | 0.00 | 0.00 | 81 | 998.1 |
| 20260506093442 | 63 | 107 | 2.6 | 2.6 | 0.00 | 0.00 | 0.00 | 81 | 997.7 |
| 20260506092940 | 64 | 182 | 1.7 | 2.6 | 0.00 | 0.00 | 0.00 | 81 | 997.7 |
| 20260506092437 | 64 | 195 | 3.5 | 4.3 | 0.00 | 0.00 | 0.00 | 81 | 997.6 |
| 20260506091934 | 64 | 176 | 0.9 | 1.7 | 0.00 | 0.00 | 0.00 | 81 | 997.8 |
| 20260506091432 | 64 | 187 | 2.6 | 4.3 | 0.00 | 0.00 | 0.00 | 81 | 997.8 |
| 20260506090929 | 64 | 162 | 3.5 | 4.3 | 0.00 | 0.00 | 0.00 | 80 | 998.0 |
| 20260506090426 | 64 | 167 | 0.9 | 1.7 | 0.00 | 0.00 | 0.00 | 80 | 997.8 |
| 20260506085923 | 64 | 126 | 2.6 | 2.6 | 0.00 | 0.00 | 0.00 | 80 | 998.0 |
| 20260506085420 | 64 | 164 | 0.9 | 0.9 | 0.00 | 0.00 | 0.00 | 80 | 997.8 |
| 20260506084916 | 64 | 146 | 2.6 | 5.2 | 0.00 | 0.00 | 0.00 | 80 | 998.0 |
| 20260506084413 | 64 | 216 | 2.6 | 2.6 | 0.00 | 0.00 | 0.00 | 80 | 997.9 |
| 20260506083909 | 64 | 159 | 1.7 | 2.6 | 0.00 | 0.00 | 0.00 | 80 | 997.8 |
| 20260506083407 | 65 | 156 | 2.6 | 2.6 | 0.00 | 0.00 | 0.00 | 79 | 997.7 |
| 20260506082904 | 65 | 182 | 1.7 | 2.6 | 0.00 | 0.00 | 0.00 | 79 | 997.7 |
| 20260506082401 | 65 | 154 | 0.9 | 1.7 | 0.00 | 0.00 | 0.00 | 78 | 997.9 |
| 20260506081856 | 65 | 145 | 0.9 | 1.7 | 0.00 | 0.00 | 0.00 | 78 | 997.9 |
| 20260506081355 | 65 | 218 | 3.5 | 6.1 | 0.00 | 0.00 | 0.00 | 78 | 998.0 |
| 20260506080852 | 65 | 227 | 3.5 | 4.3 | 0.00 | 0.00 | 0.00 | 78 | 998.0 |
| 20260506080349 | 65 | 167 | 1.7 | 1.7 | 0.00 | 0.00 | 0.00 | 79 | 998.2 |
| 20260506073333 | 65 | 223 | 2.6 | 2.6 | 0.00 | 0.00 | 0.00 | 78 | 998.1 |
| 20260506072829 | 65 | 183 | 1.7 | 1.7 | 0.00 | 0.00 | 0.00 | 78 | 998.1 |
| 20260506072327 | 65 | 185 | 3.5 | 4.3 | 0.00 | 0.00 | 0.00 | 78 | 998.1 |
| 20260506071825 | 65 | 156 | 2.6 | 5.2 | 0.00 | 0.00 | 0.00 | 77 | 998.1 |
| 20260506071323 | 66 | 157 | 2.6 | 2.6 | 0.00 | 0.00 | 0.00 | 77 | 998.1 |
| 20260506070819 | 66 | 228 | 5.2 | 7.0 | 0.00 | 0.00 | 0.00 | 77 | 998.1 |
| 20260506070316 | 66 | 200 | 2.6 | 2.6 | 0.00 | 0.00 | 0.00 | 77 | 998.2 |
| 20260506062253 | 66 | 244 | 6.1 | 7.8 | 0.00 | 0.00 | 0.00 | 74 | 998.5 |
| 20260506061749 | 66 | 161 | 1.7 | 2.6 | 0.00 | 0.00 | 0.00 | 75 | 998.5 |
| 20260506061247 | 66 | 162 | 1.7 | 1.7 | 0.00 | 0.00 | 0.00 | 75 | 998.6 |
| 20260506060745 | 66 | 146 | 3.5 | 4.3 | 0.00 | 0.00 | 0.00 | 74 | 998.5 |
| 20260506060242 | 66 | 205 | 2.6 | 4.3 | 0.00 | 0.00 | 0.00 | 74 | 998.5 |
| 20260506051209 | 67 | 185 | 1.7 | 1.7 | 0.00 | 0.00 | 0.00 | 72 | 998.8 |
| 20260506050707 | 67 | 196 | 2.6 | 2.6 | 0.00 | 0.00 | 0.00 | 72 | 998.9 |
| 20260506050204 | 67 | 192 | 2.6 | 2.6 | 0.00 | 0.00 | 0.00 | 71 | 999.0 |
| 20260506044655 | 67 | 181 | 2.6 | 2.6 | 0.00 | 0.00 | 0.00 | 70 | 999.1 |
| 20260506044151 | 67 | 199 | 2.6 | 2.6 | 0.00 | 0.00 | 0.00 | 70 | 999.1 |
| 20260506043649 | 67 | 174 | 2.6 | 2.6 | 0.00 | 0.00 | 0.00 | 70 | 999.2 |
| 20260506043147 | 67 | 149 | 2.6 | 2.6 | 0.00 | 0.00 | 0.00 | 70 | 999.2 |
| 20260506042646 | 67 | 124 | 0.0 | 0.0 | 0.00 | 0.00 | 0.00 | 69 | 999.4 |
| 20260506042143 | 67 | 163 | 0.0 | 0.0 | 0.00 | 0.00 | 0.00 | 69 | 999.0 |
| 20260506041641 | 67 | 151 | 1.7 | 1.7 | 0.00 | 0.00 | 0.00 | 69 | 999.2 |
| 20260506041137 | 67 | 206 | 1.7 | 1.7 | 0.00 | 0.00 | 0.00 | 69 | 999.2 |
| 20260506040635 | 67 | 159 | 0.0 | 0.9 | 0.00 | 0.00 | 0.00 | 69 | 999.2 |
| 20260506040132 | 67 | 153 | 0.9 | 1.7 | 0.00 | 0.00 | 0.00 | 68 | 999.1 |
| 20260506035629 | 67 | 190 | 1.7 | 1.7 | 0.00 | 0.00 | 0.00 | 68 | 999.0 |
| 20260506035125 | 67 | 169 | 0.9 | 0.9 | 0.00 | 0.00 | 0.00 | 68 | 998.9 |
| 20260506034622 | 67 | 160 | 0.9 | 0.9 | 0.00 | 0.00 | 0.00 | 68 | 999.3 |
| 20260506034119 | 67 | 162 | 0.9 | 0.9 | 0.00 | 0.00 | 0.00 | 68 | 998.9 |
| 20260506033617 | 67 | 172 | 0.9 | 0.9 | 0.00 | 0.00 | 0.00 | 67 | 998.8 |
| 20260506033114 | 67 | 193 | 2.6 | 2.6 | 0.00 | 0.00 | 0.00 | 67 | 998.8 |
| 20260506032612 | 67 | 165 | 1.7 | 2.6 | 0.00 | 0.00 | 0.00 | 67 | 998.8 |
| 20260506032108 | 68 | 160 | 0.9 | 1.7 | 0.00 | 0.00 | 0.00 | 67 | 999.0 |
| 20260506031605 | 68 | 165 | 3.5 | 4.3 | 0.00 | 0.00 | 0.00 | 67 | 998.9 |
| 20260506031102 | 68 | 197 | 1.7 | 1.7 | 0.00 | 0.00 | 0.00 | 66 | 998.9 |
| 20260506030600 | 68 | 193 | 2.6 | 2.6 | 0.00 | 0.00 | 0.00 | 66 | 998.8 |
| 20260506030058 | 68 | 169 | 1.7 | 2.6 | 0.00 | 0.00 | 0.00 | 66 | 998.8 |
| 20260506025554 | 68 | 167 | 3.5 | 4.3 | 0.00 | 0.00 | 0.00 | 66 | 999.0 |
| 20260506025050 | 68 | 189 | 2.6 | 2.6 | 0.00 | 0.00 | 0.00 | 65 | 999.1 |
| 20260506024547 | 68 | 209 | 1.7 | 1.7 | 0.00 | 0.00 | 0.00 | 65 | 999.0 |
| 20260506024043 | 69 | 149 | 3.5 | 6.1 | 0.00 | 0.00 | 0.00 | 64 | 998.9 |
| 20260506023539 | 69 | 163 | 3.5 | 4.3 | 0.00 | 0.00 | 0.00 | 63 | 999.3 |
| 20260506023037 | 69 | 176 | 2.6 | 4.3 | 0.00 | 0.00 | 0.00 | 62 | 998.9 |
| 20260506022534 | 69 | 179 | 1.7 | 2.6 | 0.00 | 0.00 | 0.00 | 61 | 999.0 |
| 20260506022032 | 70 | 151 | 1.7 | 2.6 | 0.00 | 0.00 | 0.00 | 60 | 999.2 |
| 20260506021529 | 70 | 157 | 0.9 | 0.9 | 0.00 | 0.00 | 0.00 | 58 | 998.9 |
| 20260506021026 | 71 | 179 | 2.6 | 2.6 | 0.00 | 0.00 | 0.00 | 57 | 998.9 |
| 20260506020524 | 71 | 145 | 0.0 | 0.9 | 0.00 | 0.00 | 0.00 | 56 | 999.1 |
| 20260506020021 | 71 | 170 | 2.6 | 4.3 | 0.00 | 0.00 | 0.00 | 55 | 998.8 |
| 20260506015518 | 72 | 194 | 1.7 | 1.7 | 0.00 | 0.00 | 0.00 | 54 | 998.7 |
| 20260506015015 | 72 | 212 | 4.3 | 5.2 | 0.00 | 0.00 | 0.00 | 53 | 998.6 |
| 20260506014513 | 72 | 184 | 2.6 | 5.2 | 0.00 | 0.00 | 0.00 | 53 | 998.8 |
| 20260506014008 | 72 | 138 | 2.6 | 5.2 | 0.00 | 0.00 | 0.00 | 53 | 998.6 |
| 20260506013507 | 72 | 223 | 4.3 | 5.2 | 0.00 | 0.00 | 0.00 | 52 | 998.9 |
| 20260506013003 | 73 | 174 | 1.7 | 2.6 | 0.00 | 0.00 | 0.00 | 52 | 998.6 |
| 20260506012459 | 73 | 110 | 2.6 | 2.6 | 0.00 | 0.00 | 0.00 | 52 | 998.4 |
| 20260506011956 | 73 | 168 | 0.9 | 1.7 | 0.00 | 0.00 | 0.00 | 51 | 998.6 |
| 20260506011454 | 73 | 144 | 3.5 | 5.2 | 0.00 | 0.00 | 0.00 | 51 | 998.6 |
| 20260506010951 | 73 | 159 | 2.6 | 2.6 | 0.00 | 0.00 | 0.00 | 50 | 998.7 |
| 20260506010450 | 73 | 168 | 2.6 | 4.3 | 0.00 | 0.00 | 0.00 | 50 | 998.3 |
| 20260506005945 | 73 | 217 | 2.6 | 4.3 | 0.00 | 0.00 | 0.00 | 49 | 998.3 |
| 20260506005444 | 73 | 139 | 5.2 | 7.8 | 0.00 | 0.00 | 0.00 | 49 | 998.3 |
| 20260506004944 | 74 | 150 | 3.5 | 4.3 | 0.00 | 0.00 | 0.00 | 48 | 998.3 |
| 20260506004442 | 74 | 196 | 2.6 | 2.6 | 0.00 | 0.00 | 0.00 | 48 | 998.2 |
| 20260506003938 | 74 | 142 | 1.7 | 2.6 | 0.00 | 0.00 | 0.00 | 48 | 998.1 |
| 20260506003435 | 74 | 186 | 4.3 | 7.0 | 0.00 | 0.00 | 0.00 | 48 | 998.1 |
| 20260506002931 | 74 | 170 | 0.9 | 0.9 | 0.00 | 0.00 | 0.00 | 48 | 998.0 |
| 20260506002427 | 75 | 151 | 3.5 | 7.0 | 0.00 | 0.00 | 0.00 | 47 | 998.0 |
| 20260506001922 | 75 | 160 | 4.3 | 6.1 | 0.00 | 0.00 | 0.00 | 46 | 998.1 |
| 20260506001420 | 75 | 199 | 2.6 | 4.3 | 0.00 | 0.00 | 0.00 | 47 | 997.9 |
| 20260506000917 | 75 | 155 | 2.6 | 2.6 | 0.00 | 0.00 | 0.00 | 46 | 997.9 |
| 20260506000416 | 75 | 198 | 3.5 | 4.3 | 0.00 | 0.00 | 0.00 | 46 | 997.8 |
| 20260505235911 | 75 | 195 | 3.5 | 4.3 | 0.00 | 0.00 | 0.00 | 47 | 997.7 |
| 20260505235409 | 75 | 162 | 3.5 | 5.2 | 0.00 | 0.00 | 0.00 | 47 | 997.7 |
| 20260505234906 | 75 | 177 | 4.3 | 6.1 | 0.00 | 0.00 | 0.00 | 47 | 997.7 |
| 20260505234403 | 76 | 190 | 3.5 | 4.3 | 0.00 | 0.00 | 0.00 | 47 | 997.5 |
| 20260505233900 | 76 | 214 | 1.7 | 2.6 | 0.00 | 0.00 | 0.00 | 47 | 997.7 |
| 20260505233358 | 76 | 151 | 1.7 | 1.7 | 0.00 | 0.00 | 0.00 | 47 | 997.6 |
| 20260505232855 | 76 | 199 | 3.5 | 4.3 | 0.00 | 0.00 | 0.00 | 46 | 997.8 |
| 20260505232353 | 76 | 233 | 4.3 | 11.3 | 0.00 | 0.00 | 0.00 | 46 | 997.9 |
| 20260505231849 | 77 | 142 | 3.5 | 5.2 | 0.00 | 0.00 | 0.00 | 46 | 997.5 |
| 20260505231347 | 77 | 218 | 4.3 | 7.0 | 0.00 | 0.00 | 0.00 | 46 | 997.9 |
| 20260505230845 | 77 | 180 | 1.7 | 2.6 | 0.00 | 0.00 | 0.00 | 46 | 997.9 |
| 20260505230342 | 77 | 134 | 4.3 | 5.2 | 0.00 | 0.00 | 0.00 | 46 | 997.5 |
| 20260505225839 | 77 | 158 | 2.6 | 4.3 | 0.00 | 0.00 | 0.00 | 46 | 997.4 |
| 20260505225336 | 78 | 150 | 2.6 | 2.6 | 0.00 | 0.00 | 0.00 | 45 | 997.4 |
| 20260505224830 | 78 | 146 | 3.5 | 5.2 | 0.00 | 0.00 | 0.00 | 44 | 997.2 |
| 20260505224329 | 78 | 233 | 7.8 | 9.6 | 0.00 | 0.00 | 0.00 | 41 | 997.2 |
| 20260505223826 | 78 | 149 | 3.5 | 5.2 | 0.00 | 0.00 | 0.00 | 40 | 997.3 |
| 20260505223323 | 79 | 149 | 1.7 | 2.6 | 0.00 | 0.00 | 0.00 | 40 | 997.2 |